{"data":{"norad_id":64528,"intl_designator":"2025-135A","name":"GOOD ANCESTOR KILAKILA","alt_names":[],"object_type":"PAYLOAD","status":"ACTIVE","operator":null,"country":"SLB","launch_date":"2025-06-23","launch_site_code":"AFWTR","launch_vehicle":null,"mission":null,"orbit_class":"UNKNOWN","rcs_meters":null,"size_class":null,"mass_kg":null,"dimensions":null,"purposes":[],"wikipedia_slug":null,"has_3d_model":false,"image_url":null,"decayed_at":null,"tle_current":{"epoch":"2026-05-25T01:27:27.884160Z","epoch_age_seconds":73292,"freshness":"FRESH","line1":"1 64528U 25135A   26145.06073940  .00007560  00000+0  31834-3 0  9997","line2":"2 64528  97.4604 260.4083 0003577 259.7111 100.3723 15.23640679 51362","mean_motion":15.23640679,"eccentricity":0.0003577,"inclination_deg":97.4604,"raan_deg":260.4083,"arg_perigee_deg":259.7111,"mean_anomaly_deg":100.3723,"bstar":0.00031834,"rev_number":5136,"period_min":94.510472176754,"perigee_km":492.41177286846,"apogee_km":497.32872225337,"semimajor_km":6873.0072475609,"source":"CELESTRAK","updated_at":"2026-05-25T13:38:04.579339Z"}}}